{"data":{"norad_id":47157,"epoch":"2026-05-25T02:55:05.401056Z","epoch_age_seconds":54628,"freshness":"FRESH","line1":"1 47157U 20088AM  26145.12159029  .00048152  00000+0  14198-2 0  9993","line2":"2 47157  53.1572 300.5047 0002076 288.5169  71.5608 15.34561600303635","mean_motion":15.345616,"eccentricity":0.0002076,"inclination_deg":53.1572,"raan_deg":300.5047,"arg_perigee_deg":288.5169,"mean_anomaly_deg":71.5608,"bstar":0.0014198,"rev_number":30363,"period_min":93.83787526027,"perigee_km":460.80291437144,"apogee_km":463.64303183228,"semimajor_km":6840.3599731019,"source":"CELESTRAK","updated_at":"2026-05-25T13:38:16.522072Z"}}